默认 日期 大小 文件数 浏览量 最新下载 xml
rats磁力链接相关资源由用户搜索指令自动获取,结果来源于网络,本站不存储任何资料,亦不承担任何责任,请于24小时内删除,搜索到1550个磁力,用时1ms。
    {"Burial of the Rats (1995).mkv": 1172291729}
创建时间: 2018-12-25 19:46:46 大小:1.09 GB 文件数量:1 热度:21 最近下载:2025-09-20 09:31:07
    {"AgusiQ.gif": 1700262, "AgusiQ Zaprasza.url": 125, "AgusiQ-Torrents The Best.avi": 6836184, "Beach.Rats.2017.PL.SUBBED.BRRip.XViD-MORS.avi": 733516362, "Torrent downloaded from agusiq-torrents.pl upload AQ.txt": 4034}
创建时间: 2018-12-26 18:00:04 大小:707.68 MB 文件数量:5 热度:7 最近下载:2023-04-16 02:30:07
    {"folder.jpg": 90824, "10 - Mary.mp3": 7875552, "02 - 6 Pack.mp3": 7893987, "11 - Bullshit.mp3": 8072168, "04 - Braindead.mp3": 8141801, "09 - Buzz-Kill.mp3": 6101993, "01 - Don't Talk.mp3": 7377899, "05 - Scott Green.mp3": 6071277, "07 - Like Before.mp3": ...
创建时间: 2018-12-26 21:28:15 大小:79.25 MB 文件数量:12 热度:10 最近下载:2025-02-26 19:55:04
    {"SAMPLE.avi": 7531284, "Captain.nfo": 7252, "The Rats AKA Deadly Eyes.avi": 732108800, "The Rats AKA Deadly Eyes.jpg": 44597, "The Rats AKA Deadly Eyes.txt": 1271}
创建时间: 2018-12-26 22:13:35 大小:705.43 MB 文件数量:5 热度:9 最近下载:2025-09-18 19:47:09
    {"folder.jpg": 184164, "06.Rats.mp3": 7009438, "05.Bullet.mp3": ...
创建时间: 2018-12-27 01:26:17 大小:85.1 MB 文件数量:11 热度:6 最近下载:2023-04-16 07:50:02
    {"RARBG.com.txt": 34, "Lab.Rats.Elite.Force.S01E05.Need.for.Speed.1080p.DSNY.WEBRip.AAC2.0.x264-TVSmash.mkv": 834225742}
创建时间: 2018-12-27 06:31:33 大小:795.58 MB 文件数量:2 热度:7 最近下载:2025-07-03 20:34:02
    {"Subs": {"2_Eng.srt": 66298, "3_Fre.srt": 72266, "4_Spa.srt": 61016}, "RARBG.txt": 30, "Rats.Night.of.Terror.1984.1080p.BluRay.H264.AAC-RARBG.mp4": 1977071632}
创建时间: 2018-12-27 14:41:31 大小:1.84 GB 文件数量:5 热度:7 最近下载:2025-03-15 00:52:01
    ... ": 325261, "screen0004.png": 306396}, "Lab.Rats.Elite.Force.S01E10.XviD-AFG ... .avi": 275530952, "Lab.Rats.Elite.Force.S01E10.XviD-AFG ...
创建时间: 2018-12-27 17:39:21 大小:264 MB 文件数量:7 热度:6 最近下载:2025-06-19 13:19:01
    {"ps-gro2.mp4": 1112619363}
创建时间: 2018-12-27 17:58:09 大小:1.04 GB 文件数量:1 热度:8 最近下载:2025-08-22 02:05:02
    {"RARBG.com.txt": 34, "Lab.Rats.Elite.Force.S01E15.They.Grow.Up.So.Fast.720p.DSNY.WEBRip.AAC2.0.x264-TVSmash.mkv": 563611776}
创建时间: 2018-12-27 22:00:06 大小:537.5 MB 文件数量:2 热度:14 最近下载:2025-09-19 00:51:01
    {"Covers": {"Desert Rats_cd.jpg": 200143, "Desert Rats_front.jpg": 1409682}, "VIDEO_TS": {"VIDEO_TS.BUP": 16384, "VIDEO_TS.IFO": 16384, "VIDEO_TS.VOB": 116736, "VTS_01_0.BUP": 28672, "VTS_01_0.IFO": 28672, "VTS_01_0.VOB": 9682944, "VTS_01_1.VOB": 17229824, ...
创建时间: 2018-12-27 22:30:57 大小:5.89 GB 文件数量:22 热度:8 最近下载:2025-02-18 03:32:02
    {"czp nfo-hr.czp..nfo": 4652, "Hot.Rats.2003.DVDRip.XviD-czp.avi": 1592385968, "(sample)-Hot.Rats.2003.DVDRip.XviD-czp.avi": 24041864}
创建时间: 2018-12-27 23:52:09 大小:1.51 GB 文件数量:3 热度:15 最近下载:2025-02-19 15:17:02
    {"RARBG.com.txt": 34, "Lab.Rats.Elite.Force.S01E06.Follow.the.Leader.720p.DSNY.WEBRip.AAC2.0.x264-TVSmash.mkv": 569366969}
创建时间: 2018-12-28 01:57:49 大小:542.99 MB 文件数量:2 热度:8 最近下载:2025-08-07 19:19:01
    {"RARBG.txt": 31, "Rats.Discovery.Channel.Documentary.2016.1080p.WEBRip.DD5.1.x264-TrollHD.mkv": 5698621326, "Rats.Discovery.Channel.Documentary.2016.1080p.WEBRip.DD5.1.x264-TrollHD.nfo": 6829}
创建时间: 2018-12-28 02:36:05 大小:5.31 GB 文件数量:3 热度:7 最近下载:2025-03-17 13:21:02
    {"LABEL.jpg": 3321484, "02 - Willie The Pimp.flac": 203761916, "04 - Little Umbrellas.flac": 68462746, "Method and Information.txt": 1112, "01 - Peaches En Regalia.flac": 78830531, "06 - It Must Be A Camel.flac": 115133430, "03 - Son Of Mr. Green Genes. ...
创建时间: 2018-12-28 03:25:42 大小:930.66 MB 文件数量:9 热度:6 最近下载:2024-10-15 01:26:02
    {"Scene 1.mp4": 232319820, "Scene 2.mp4": 907094072, "cover 1.jpg": 63170, "cover 2.jpg": 65017}
创建时间: 2018-12-28 03:38:29 大小:1.06 GB 文件数量:4 热度:12 最近下载:2025-09-23 10:15:02
    ... ": 4520222, "Good Rats - Feelin' .mp3": 10156760, "Good Rats - 300 Boys .mp3 ... , "The Hobo Good Rats The Good Rats (One Way).mp3": 4228775 ... Got the Time Good Rats The Good Rats (One Way).mp3": ... Taking It To Detroit Good Rats From Rats To Riches (Mondo).mp3 ...
创建时间: 2018-12-28 07:38:50 大小:285.6 MB 文件数量:49 热度:6 最近下载:2024-10-11 23:58:02
    {"DVD Art.jpg": 301155, "DVD Cover.jpg": 473888, "Torrent downloaded from Demonoid[1][1].com.txt": 47, "The Fighting Rats of Tobruk - (1944) - Flipper.avi": 837904384}
创建时间: 2018-12-28 11:12:19 大小:799.83 MB 文件数量:4 热度:10 最近下载:2025-03-25 00:53:03
    ... 9548594, "05 - The Boomtown Rats - Like Clockwork.mp3": 9163035 ... , "14 - The Boomtown Rats - Diamond Smiles.mp3": 9548603 ... 7415968, "13 - The Boomtown Rats - Banana Republic.mp3": 8404442, ... "01 - The Boomtown Rats - The Boomtown Rats.mp3": 12776298, "07 ...
创建时间: 2018-12-28 13:46:22 大小:153.24 MB 文件数量:17 热度:15 最近下载:2024-10-02 09:51:01
    {"Gym Rats Orgy 31.mp4": 232319820, "Gym Rats Orgy 32.mp4": 907094072}
创建时间: 2018-12-28 21:52:23 大小:1.06 GB 文件数量:2 热度:8 最近下载:2025-09-17 19:30:03